Content
SEND FEEDBACK

Daily
Averages
Monthly
Summary
United States of America

ASHEVILLE, NORTH CAROLINA


Home > North America > United States > North Carolina
Elevation: 2240 feet     Latitude: 35 36N     Longitude: 082 32W

WEATHER
 
SELECT A DAY
Number of Records: 225,823;   Date Range: 1/1/95 - 7/29/14
 
SHARE

PRINT THIS DATA

[ ← Previous Day ]
WEATHER ALMANAC - JANUARY 27, 2013
[ Next Day → ]
[ °C ]   °F
Weather ElementAverageHighLow
Temperature32.4 °F41 °F (1:54 pm)24.1 °F (4:54 am)
Dewpoint25.2 °F30 °F (11:54 pm)21.2 °F (6:47 am)
Humidity75.8 %93 % (7:41 am)55 % (1:54 pm)
Barometer30.44 in30.50 in (10:54 am)30.35 in (1:54 am)
Wind Speed4.6 mph9.2 mph (9:54 am)
Wind Gust16.1 mph (10:54 am)
Weather ElementAverage
Visibility9.1 mi
Wind DirectionESE (105.9 °)

Weather ElementTotal
Precipitation0.01 in
Heating Degree Days32.5 (Base 65)
Averaged from 27 records on January 27, 2013
WEATHER CONDITIONS BREAKOUT
WIND DIRECTION BREAKOUT
WEATHER BY HOUR - JANUARY 27, 2013
[ °C ]   °F
Local TimeTemperatureDewpointHumidityBarometerVisibilityWind DirectionWind SpeedGust SpeedPrecipitationEventsConditions
1:54 AM28.0 °F24.1 °F85 %30.35 in10.0 miCalmClear
2:54 AM25.0 °F23.0 °F92 %30.38 in9.0 miCalmClear
3:54 AM25.0 °F23.0 °F92 %30.37 in9.0 miCalmClear
4:54 AM24.1 °F21.9 °F91 %30.39 in7.0 miSouth (170°)4.6 mphClear
5:54 AM24.1 °F21.9 °F91 %30.41 in8.0 miSouth (170°)3.5 mphClear
6:47 AM24.8 °F21.2 °F86 %30.40 in8.0 miSouth (170°)3.5 mphMostly Cloudy
6:54 AM24.1 °F21.9 °F91 %30.44 in8.0 miCalmScattered Clouds
7:41 AM26.6 °F24.8 °F93 %30.42 in7.0 miCalmMostly Cloudy
7:51 AM26.6 °F24.8 °F93 %30.43 in6.0 miCalmMostly Cloudy
7:54 AM27.0 °F25.0 °F92 %30.47 in6.0 miCalmOvercast
8:54 AM30.0 °F27.0 °F88 %30.48 in8.0 miSSE (160°)5.8 mphOvercast
9:54 AM30.9 °F26.1 °F82 %30.49 in10.0 miSouth (170°)9.2 mphOvercast
10:30 AM32.0 °F24.8 °F75 %30.45 in10.0 miSE (140°)8.1 mphOvercast
10:54 AM33.1 °F24.1 °F70 %30.50 in10.0 miSSE (150°)8.1 mph16.1 mphOvercast
11:54 AM36.0 °F25.0 °F64 %30.48 in10.0 miESE (110°)6.9 mphScattered Clouds
12:54 PM37.9 °F26.1 °F62 %30.45 in10.0 miVariable3.5 mphClear
1:54 PM41.0 °F26.1 °F55 %30.43 in10.0 miSSE (160°)8.1 mphClear
2:54 PM41.0 °F26.1 °F55 %30.42 in10.0 miSSE (150°)9.2 mphScattered Clouds
3:54 PM39.9 °F26.1 °F58 %30.43 in10.0 miESE (120°)8.1 mphOvercast
4:54 PM39.0 °F26.1 °F60 %30.44 in10.0 miSSE (150°)6.9 mphOvercast
5:54 PM37.9 °F26.1 °F62 %30.45 in10.0 miSSE (150°)4.6 mphOvercast
6:54 PM37.9 °F26.1 °F62 %30.47 in10.0 miSE (140°)4.6 mphOvercast
7:54 PM37.0 °F27.0 °F67 %30.47 in10.0 miSSE (150°)3.5 mphOvercast
8:54 PM37.0 °F27.0 °F67 %30.46 in10.0 miSE (140°)5.8 mphOvercast
9:54 PM37.0 °F27.0 °F67 %30.45 in10.0 miSSE (160°)5.8 mphMostly Cloudy
10:54 PM37.0 °F27.0 °F67 %30.45 in10.0 miSSE (150°)8.1 mph0.00 inRainLight Rain
11:54 PM36.0 °F30.0 °F79 %30.41 in10.0 miSSE (150°)5.8 mph0.01 inOvercast
Hourly data recorded from KAVL, located miles away from Asheville, North Carolina







STORIES FROM OUR PARTNERS